Tracking 21155 objects as of 15-Aug-2020
HD Live streaming from Space Station
objects crossing your sky now

STARLINK 1059

Track STARLINK 1059 now!
10-day predictions
STARLINK 1059 is classified as:


NORAD ID: 44764
Int'l Code: 2019-074BD
Perigee: 556.1 km
Apogee: 557.7 km
Inclination: 53.0 °
Period: 95.6 minutes
Semi major axis: 6927 km
RCS: Unknown
Launch date: November 11, 2019
Source: United States (US)
Launch site: AIR FORCE EASTERN TEST RANGE (AFETR)
aabbcc
Your satellite tracking list
Your tracking list is empty




NASA's NSSDC Master Catalog

Two Line Element Set (TLE):
1 44764U 19074BD  20228.58335648 -.00008890 +00000-0 -59191-3 0  9997
2 44764 053.0010 329.0984 0001117 097.0227 230.1185 15.05567969001765
Source of the keplerian elements: AFSPC